EW1549 Weather Reports


time (UTC)temp
C
wind
direction
speed
KPH
gust
KPH
rain 1hr
cm
rain 24hr
cm
rain mn
cm
humidity
%
barometer
mb
20221203064526 17 297 0.0 0.0 0.08 0.84 0.41 89 1010.7
20221203063026 17 297 0.0 19.3 0.03 0.79 0.33 89 1010.6
20221203061522 17 216 8.0 11.3 0.00 0.76 0.33 89 1010.3
20221203060023 17 202 0.0 4.8 0.05 0.76 0.33 89 1010.2
20221203054521 17 110 0.0 6.4 0.05 0.76 0.33 89 1010.3
20221203053021 17 98 4.8 9.7 0.05 0.76 0.33 90 1010.1
20221203051523 17 98 3.2 14.5 0.13 0.76 0.33 90 1010.1
20221203050020 17 215 1.6 8.0 0.15 0.71 0.28 90 1010.2
20221203044528 17 217 4.8 11.3 0.20 0.71 0.28 90 1010.2
20221203043019 17 273 3.2 14.5 0.23 0.71 0.28 89 1010.2
20221203041514 17 228 6.4 12.9 0.15 0.64 0.20 89 1010.2
20221203040012 17 220 8.0 11.3 0.08 0.56 0.13 89 1010.3
20221203034509 18 220 6.4 9.7 0.05 0.51 0.08 88 1010.4
20221203033006 18 231 4.8 8.0 0.00 0.48 0.05 87 1010.6
20221203031504 18 204 1.6 8.0 0.00 0.48 0.05 86 1010.6
20221203030004 18 4 6.4 14.5 0.00 0.51 0.05 85 1010.7
20221203024508 18 217 4.8 9.7 0.00 0.51 0.05 84 1010.6
20221203023104 18 218 3.2 6.4 0.00 0.51 0.05 84 1010.6
20221203021558 18 211 0.0 8.0 0.00 0.51 0.05 83 1010.7
20221203020057 18 254 0.0 4.8 0.00 0.51 0.05 83 1010.8
20221203014604 18 46 4.8 9.7 0.05 0.51 0.05 83 1010.8
20221203013055 18 129 0.0 9.7 0.05 0.51 0.05 82 1010.9
20221203011552 18 185 6.4 24.1 0.05 0.51 0.05 82 1011.0
20221203010051 18 100 8.0 17.7 0.05 0.51 0.05 83 1011.2
20221203004555 19 87 0.0 14.5 0.00 0.46 0.00 82 1011.4
20221203003047 19 108 3.2 17.7 0.00 0.46 0.00 83 1011.6
20221203001545 19 69 0.0 16.1 0.00 0.46 0.00 82 1011.8
20221203000042 19 66 6.4 19.3 0.00 0.46 0.46 82 1011.8
20221202234541 19 36 9.7 25.7 0.00 0.46 0.46 83 1011.9
20221202233048 19 81 6.4 29.0 0.00 0.46 0.46 83 1011.9
20221202231543 19 74 9.7 22.5 0.00 0.46 0.46 85 1012.0
20221202230040 19 66 8.0 30.6 0.00 0.53 0.46 85 1011.9
20221202224539 18 75 14.5 41.8 0.00 0.53 0.46 87 1012.0
20221202223039 18 41 11.3 22.5 0.03 0.53 0.46 89 1012.0
20221202221542 18 55 17.7 27.4 0.05 0.53 0.46 89 1012.0
20221202220137 18 76 14.5 29.0 0.05 0.53 0.46 90 1012.1
20221202214536 18 46 19.3 30.6 0.08 0.56 0.46 91 1012.1
20221202213046 18 71 8.0 14.5 0.10 0.53 0.43 92 1012.4
20221202211541 18 46 16.1 29.0 0.08 0.51 0.43 92 1012.4
20221202210044 18 67 20.9 40.2 0.05 0.51 0.41 91 1012.5
20221202204537 18 212 8.0 14.5 0.05 0.48 0.38 92 1012.2
20221202203031 18 225 4.8 6.4 0.03 0.43 0.33 92 1012.2
20221202201535 18 239 0.0 4.8 0.05 0.43 0.33 91 1012.1
20221202200027 18 219 6.4 9.7 0.08 0.43 0.33 91 1012.1
20221202194526 18 227 3.2 6.4 0.13 0.43 0.33 91 1012.0
20221202193025 18 228 0.0 8.0 0.10 0.43 0.33 91 1011.9
20221202191527 18 241 6.4 9.7 0.05 0.38 0.28 90 1011.7
20221202190025 18 220 0.0 4.8 0.15 0.36 0.25 90 1011.9
20221202184523 18 220 0.0 0.0 0.15 0.33 0.23 89 1011.7
20221202183023 18 220 0.0 0.0 0.15 0.33 0.23 89 1011.7
20221202181521 18 220 0.0 4.8 0.15 0.33 0.23 89 1011.7
20221202180020 18 105 0.0 0.0 0.08 0.20 0.10 88 1011.6
20221202174524 18 105 0.0 9.7 0.05 0.18 0.08 88 1011.7
20221202173019 18 36 12.9 19.3 0.05 0.15 0.05 87 1011.7
20221202171518 19 46 12.9 25.7 0.05 0.15 0.05 86 1011.6
20221202170017 20 63 6.4 19.3 0.00 0.13 0.03 80 1011.5
20221202164517 20 54 8.0 17.7 0.00 0.13 0.03 77 1011.5
20221202163025 21 36 1.6 8.0 0.00 0.13 0.03 74 1011.4
20221202161532 21 77 4.8 12.9 0.00 0.13 0.03 74 1011.4
20221202160017 21 15 8.0 17.7 0.00 0.13 0.03 75 1011.4
20221202154514 21 41 8.0 14.5 0.00 0.13 0.03 75 1011.4
20221202153013 21 233 0.0 4.8 0.00 0.13 0.03 78 1011.3
20221202151511 20 224 3.2 6.4 0.00 0.13 0.03 79 1011.4
20221202150010 20 4 0.0 4.8 0.00 0.13 0.03 78 1011.5
20221202144509 20 4 0.0 9.7 0.00 0.13 0.03 77 1011.8
20221202143011 21 31 11.3 17.7 0.00 0.13 0.03 75 1011.8
20221202141505 22 65 12.9 19.3 0.00 0.13 0.03 71 1012.2
20221202140002 22 8 3.2 8.0 0.00 0.13 0.03 71 1012.3
20221202134601 21 183 0.0 4.8 0.00 0.13 0.03 75 1012.4
20221202133057 21 85 0.0 8.0 0.00 0.13 0.03 73 1012.8
20221202131559 21 58 1.6 11.3 0.00 0.13 0.03 73 1013.0
20221202130105 21 36 0.0 9.7 0.00 0.13 0.03 74 1013.2
20221202124544 21 12 6.4 14.5 0.00 0.13 0.03 74 1013.3
20221202123041 21 52 8.0 14.5 0.00 0.13 0.03 75 1013.4
20221202121537 21 218 3.2 14.5 0.00 0.13 0.03 80 1013.3
20221202120032 20 218 11.3 16.1 0.00 0.13 0.03 84 1013.6
20221202114531 20 221 0.0 6.4 0.00 0.13 0.03 85 1014.1
20221202113029 19 262 0.0 4.8 0.00 0.13 0.03 85 1014.5
20221202111629 19 262 0.0 4.8 0.00 0.13 0.03 84 1014.6
20221202110035 19 223 0.0 6.4 0.00 0.13 0.03 84 1014.8
20221202104527 19 216 1.6 6.4 0.00 0.13 0.03 84 1014.8
20221202103027 19 310 3.2 11.3 0.00 0.13 0.03 84 1014.6
20221202101529 19 306 1.6 4.8 0.00 0.13 0.03 85 1014.5
20221202100032 19 210 3.2 8.0 0.00 0.13 0.03 85 1014.4
20221202094524 18 212 4.8 6.4 0.00 0.13 0.03 85 1014.4
20221202093023 19 261 3.2 6.4 0.00 0.13 0.03 84 1014.3
20221202091522 19 277 0.0 6.4 0.00 0.13 0.03 83 1014.2
20221202090022 19 170 0.0 3.2 0.00 0.13 0.03 83 1014.0
20221202084520 18 96 0.0 0.0 0.00 0.13 0.03 82 1013.9
20221202083020 18 96 0.0 3.2 0.00 0.13 0.03 82 1013.7
20221202081520 18 81 0.0 9.7 0.00 0.13 0.03 82 1013.8
20221202080020 18 99 0.0 11.3 0.00 0.13 0.03 81 1013.7
20221202074519 19 92 6.4 14.5 0.00 0.13 0.03 81 1013.5
20221202073018 18 73 6.4 9.7 0.00 0.13 0.03 80 1013.6
20221202071530 18 88 3.2 14.5 0.00 0.13 0.03 80 1013.4
20221202070016 19 109 9.7 16.1 0.00 0.13 0.03 80 1013.5